Overview Statistics Trail Chart Weather Telemetry Raw packets
 

This is the latest recevied weather packets stored in our database for station/object SP2CDN-10. If no packets are shown the sender has not sent any weather packets the latest 10 day(s).

<< 6 7 8 9 10 11 12 >>
Time Temp. Humidity Pressure Rain* Wind** Luminosity Snow
1788265265 22.78° C 49% 1013.7 hPa - - - -
1788262983 21.67° C 55% 1013.8 hPa - - - -
1788260706 20° C 61% 1013.5 hPa - - - -
1788258420 20.56° C 61% 1013.4 hPa - - - -
1788256138 20.56° C 67% 1013 hPa - - - -
1788253857 18.33° C 81% 1013.1 hPa - - - -
1788251575 17.78° C 85% 1013.2 hPa - - - -
1788249294 16.67° C 89% 1012.8 hPa - - - -
1788247012 17.22° C 82% 1012.5 hPa - - - -
1788244731 16.67° C 86% 1012.2 hPa - - - -
1788242449 16.11° C 91% 1012.1 hPa - - - -
1788240167 15.56° C 92% 1011.8 hPa - - - -
1788237886 15.56° C 95% 1011.6 hPa - - - -
1788235604 15.56° C 95% 1011.2 hPa - - - -
1788233322 16.11° C 95% 1011.1 hPa - - - -
1788231040 16.11° C 95% 1010.8 hPa - - - -
1788228759 16.67° C 91% 1010.7 hPa - - - -
1788226477 16.67° C 97% 1010.7 hPa - - - -
1788224196 16.67° C 99% 1010.6 hPa - - - -
1788221915 17.22° C 100% 1010.7 hPa - - - -
1788219633 17.22° C 100% 1010.5 hPa - - - -
1788218261 17.78° C 100% 1010.6 hPa - - - -
1788215979 17.78° C 99% 1010.7 hPa - - - -
1788213697 17.22° C 98% 1011 hPa - - - -
1788211416 17.78° C 91% 1011.3 hPa - - - -

* Rain since midnight (hover to see other rain measurements)
** Current wind speed in m/s (hover to see current wind gust speed)